Theta_e
309 318 320 321 329 333 334 334 332 334 334 337 337 338 340 344 352 372 355 355 355 356 355 347 341 342 344 350 349 342 340 337 331 332 333 336 334 339 341 341 342 340 338 340 339 337 334 336 331
321 317 317 323 331 336 337 334 335 335 335 335 335 337 339 352 354 357 357 353 356 357 355 352 340 341 343 347 351 344 344 336 332 332 334 335 334 340 343 346 343 341 335 331 331 329 328 329 327
317 316 319 321 327 333 337 336 335 335 335 334 334 336 343 357 354 356 358 354 356 355 353 353 340 341 343 345 351 346 345 335 332 332 334 333 335 342 344 346 344 335 329 333 335 332 329 328 327
316 317 319 320 322 327 332 336 336 336 334 333 333 334 342 342 349 356 356 354 355 353 350 351 339 341 343 346 350 346 344 334 333 334 335 333 334 338 339 344 338 335 330 340 337 336 334 333 333
316 319 318 319 321 324 328 331 335 335 335 334 332 332 341 349 350 356 354 354 353 350 349 348 339 341 344 348 349 346 343 335 336 337 335 332 332 335 340 340 340 339 333 339 337 339 339 336 342
317 318 319 319 320 322 324 327 330 334 334 334 333 332 339 347 349 356 353 353 351 348 350 347 342 341 343 347 347 346 344 340 342 340 336 332 332 339 340 339 337 338 335 334 337 337 338 341 341
318 319 319 320 321 322 323 324 326 329 333 334 333 333 342 344 351 356 353 353 350 348 348 346 346 345 342 345 346 346 345 345 345 342 337 332 331 337 337 336 336 336 333 332 329 332 335 336 336
319 320 320 321 322 322 324 323 323 324 327 328 330 330 332 349 348 356 353 352 350 349 347 345 343 343 346 348 344 344 344 344 344 339 335 332 331 335 336 335 334 334 333 328 326 325 326 328 330
319 320 321 321 321 322 324 321 322 322 322 323 324 325 341 346 346 353 354 352 351 349 347 345 342 341 340 341 343 338 341 340 338 336 334 333 338 342 342 340 341 333 334 332 328 325 325 326 327
321 320 321 322 323 323 323 322 321 320 320 321 322 325 337 344 345 352 356 354 352 350 348 345 344 343 343 342 344 341 341 340 340 340 342 337 337 341 342 342 342 337 334 335 332 326 323 323 331
321 320 321 321 322 323 322 322 321 320 321 321 321 323 332 342 346 349 355 353 353 351 349 346 345 345 344 344 345 344 344 342 340 340 342 338 336 339 337 341 344 343 339 343 340 339 337 334 333
321 319 320 321 322 321 321 321 321 321 321 322 322 322 326 335 343 348 352 354 353 352 351 348 347 347 345 345 347 345 345 345 345 345 344 340 341 342 341 340 343 343 342 344 340 341 340 338 337
323 321 320 320 321 321 319 320 320 321 321 322 321 321 321 330 338 343 352 354 354 353 352 350 349 349 349 348 347 346 346 346 347 348 349 346 347 345 345 341 340 339 339 338 338 338 338 338 339
321 321 321 320 319 319 318 319 319 320 321 321 320 320 320 321 329 340 352 356 355 354 353 352 351 352 351 351 349 349 349 348 348 348 349 351 349 348 348 347 346 343 341 340 338 337 337 338 339
321 321 320 320 319 319 319 318 319 320 320 319 319 319 320 320 322 329 343 355 359 356 356 354 353 354 353 354 355 353 351 351 349 348 350 352 351 350 350 349 347 345 344 343 342 340 338 338 338
319 320 321 321 319 319 318 319 319 320 320 319 319 320 320 321 322 323 326 353 358 357 358 357 355 357 356 355 355 354 353 352 351 350 351 352 352 350 351 350 346 346 345 344 342 340 338 337 337
319 320 320 321 321 319 318 318 320 321 320 320 320 320 320 321 322 323 327 351 359 358 356 358 356 355 356 356 355 354 354 353 353 352 351 351 352 351 352 350 347 350 347 345 343 342 341 339 339
321 321 321 320 322 320 320 320 321 321 320 321 321 320 320 320 321 324 329 344 358 357 357 357 356 355 356 356 356 353 353 353 353 352 350 350 351 351 350 349 348 350 349 348 347 348 348 348 344
322 323 322 322 321 320 320 321 321 321 321 321 322 322 321 321 322 326 334 341 356 357 356 357 356 357 357 358 355 355 353 353 351 349 350 351 349 349 350 349 349 351 351 351 351 350 349 348 347
322 324 324 323 322 320 321 321 321 321 321 321 322 322 322 322 322 326 333 344 350 356 355 356 357 358 357 356 355 353 353 351 349 349 351 349 349 349 349 349 350 350 347 347 346 346 347 346 345
322 323 324 324 322 322 321 322 322 322 322 321 322 322 322 322 323 327 340 348 351 354 355 355 356 357 355 354 354 354 352 350 351 350 349 349 349 349 349 348 348 347 346 345 345 345 345 345 343
323 322 323 322 323 322 321 324 324 323 322 322 322 322 323 323 323 331 340 350 353 354 354 355 355 355 355 355 354 352 351 350 350 349 348 347 346 347 346 345 344 344 344 346 345 343 343 342 342
321 321 322 324 324 323 322 323 325 323 323 322 322 322 323 323 324 328 334 339 347 354 354 354 354 353 353 354 351 351 350 350 349 348 346 346 342 340 339 339 338 338 339 338 338 339 339 337 339
319 321 322 323 324 325 325 323 324 325 324 323 323 322 322 323 323 324 325 333 341 347 352 352 352 352 350 350 351 351 352 349 346 346 344 342 340 335 334 333 333 332 332 332 332 333 334 334 335
318 322 324 324 323 326 325 323 326 326 324 323 323 322 322 323 323 324 330 340 342 344 346 348 348 347 348 347 348 348 348 348 345 344 341 337 333 330 328 327 326 326 324 324 324 325 327 328 327
320 324 327 327 326 324 324 324 323 328 327 324 322 325 327 328 326 326 334 338 340 343 344 345 345 345 344 342 341 342 342 339 336 334 332 330 328 325 323 322 321 319 318 318 318 318 320 320 320
319 323 324 321 322 323 325 329 335 333 333 334 334 333 332 330 333 337 338 337 340 340 341 341 341 339 338 336 335 334 332 331 329 327 326 324 322 320 319 319 319 318 318 318 318 318 318 318 318
321 322 325 323 325 324 324 330 333 334 336 335 335 333 334 334 334 335 337 338 338 338 337 336 335 334 333 332 330 328 326 325 324 323 321 320 319 319 318 317 317 317 317 317 318 317 317 317 317
321 322 324 323 323 327 327 328 330 333 334 334 332 331 332 333 333 334 335 334 334 334 333 332 331 329 327 325 324 323 322 321 320 320 319 319 318 317 316 315 315 315 315 316 317 317 316 316 316
318 321 323 325 327 326 326 340 330 333 334 332 332 332 333 332 332 333 332 330 329 328 327 326 325 323 322 321 321 320 320 320 319 318 317 316 316 315 315 315 315 315 315 316 316 316 316 316 316
Wind_Speed
9 10 12 12 8 9 19 22 20 4 7 1 6 8 9 11 16 6 11 11 22 25 26 27 25 22 22 25 25 25 24 22 24 23 22 22 22 22 20 18 16 13 11 10 9 9 8 7 7
10 10 14 9 11 16 16 23 20 8 5 8 6 7 9 14 14 10 13 15 23 25 26 24 26 23 22 25 27 26 24 23 24 22 22 22 23 22 20 16 14 12 10 8 8 8 8 8 8
8 12 10 10 18 20 19 20 20 15 9 5 3 2 7 10 7 6 13 19 23 24 25 24 27 23 22 23 27 27 25 24 24 22 20 21 21 22 18 15 11 10 9 9 8 8 8 9 9
10 8 8 15 22 28 28 24 2 5 9 6 3 6 8 7 2 5 13 21 22 23 24 25 27 24 22 23 29 27 25 24 23 21 19 20 21 20 17 15 12 11 11 10 8 8 8 9 9
17 9 12 19 25 25 23 28 8 10 12 15 12 12 7 11 5 9 17 20 21 24 23 25 27 25 23 24 28 26 25 24 22 20 19 19 20 19 17 14 11 11 10 10 10 9 9 9 8
10 12 15 20 24 25 25 20 22 11 14 10 5 12 2 12 8 12 17 19 20 22 22 24 27 24 24 25 26 25 24 23 21 19 18 18 19 18 15 12 11 10 10 9 9 9 9 9 8
18 15 20 24 22 24 22 22 15 16 19 17 7 9 11 9 9 12 17 19 20 21 21 23 22 23 24 25 25 24 23 22 20 18 18 18 19 18 15 12 10 9 8 8 8 9 9 10 10
16 16 25 23 22 24 14 17 8 15 18 15 13 8 11 18 11 13 19 20 21 21 22 22 22 22 20 20 24 24 23 22 21 19 18 18 19 18 15 13 12 10 9 9 9 10 11 12 12
20 17 21 27 25 20 16 10 11 14 17 16 10 15 11 12 11 13 19 21 22 21 23 23 23 22 21 20 20 22 21 20 19 17 18 18 15 16 15 13 14 12 12 12 12 12 13 14 14
22 18 30 22 21 22 14 14 14 14 14 15 15 16 8 11 11 12 17 20 23 23 24 25 23 23 22 20 18 17 17 15 15 15 15 15 15 14 14 14 15 14 13 13 13 13 13 14 13
28 27 20 22 19 16 13 16 16 15 16 17 19 16 13 12 10 13 18 21 24 24 24 25 23 23 22 20 18 18 16 16 15 15 14 15 13 12 13 13 12 13 14 12 15 14 14 15 16
27 28 27 25 16 13 16 14 17 16 15 10 14 16 15 14 11 12 16 21 24 25 24 25 24 24 22 20 18 18 17 17 16 16 15 15 12 12 12 13 11 13 14 13 16 16 16 16 16
33 27 22 24 25 15 16 21 20 19 13 11 5 9 8 10 16 14 16 19 23 26 25 25 25 24 22 17 19 19 17 17 16 15 15 15 13 11 11 12 12 12 11 13 13 15 17 16 18
24 27 26 20 19 19 19 20 18 19 15 14 11 13 15 16 13 16 17 21 23 22 26 25 25 24 23 20 16 17 16 16 15 15 16 17 14 11 12 12 13 12 13 13 12 13 15 18 19
22 25 22 27 21 23 19 21 25 18 14 15 17 18 18 19 18 15 17 21 19 23 23 23 23 24 22 22 16 16 14 14 15 14 14 16 17 13 11 13 12 13 12 12 13 12 15 18 19
27 24 24 24 29 23 21 24 24 21 21 20 19 17 18 18 20 22 20 22 17 22 18 20 23 23 20 20 18 16 14 14 14 13 12 15 16 14 11 14 13 12 11 13 12 12 14 18 21
17 26 33 26 27 23 24 16 22 20 25 23 21 19 16 15 18 19 19 23 29 24 24 24 23 22 22 22 19 18 15 13 9 11 12 12 15 13 14 12 13 8 11 13 13 14 14 17 21
31 28 24 27 24 26 25 25 18 22 16 22 20 19 18 18 19 20 18 22 25 26 22 22 22 20 21 20 17 16 11 13 12 12 11 12 11 11 9 13 14 11 13 14 13 13 15 18 20
24 24 26 20 24 20 25 22 23 14 16 19 19 19 18 19 18 21 18 18 24 23 20 23 23 22 21 17 19 18 17 15 14 12 9 7 6 9 11 14 10 10 12 13 14 14 16 19 21
31 27 25 24 19 20 21 24 21 19 14 17 18 17 19 18 17 17 21 18 23 24 25 23 21 20 20 19 19 15 15 15 12 11 7 7 9 8 9 9 9 9 14 15 15 16 18 18 18
29 30 22 21 16 18 20 23 25 23 19 14 13 19 18 18 20 18 13 19 23 24 26 24 22 21 19 16 14 11 13 12 10 11 9 10 8 6 6 7 7 8 9 12 12 13 14 16 19
27 29 25 18 20 15 23 15 23 22 21 18 16 16 18 19 21 17 16 17 19 23 22 21 21 22 18 20 16 16 14 13 9 9 9 7 3 1 1 2 4 6 7 8 8 8 11 14 16
24 24 25 19 22 17 20 14 22 22 23 23 20 18 17 18 21 21 22 19 19 24 22 20 20 20 17 16 15 14 11 12 10 9 9 9 7 6 5 5 6 5 5 7 10 10 10 11 13
25 22 24 17 16 14 21 19 19 23 26 22 21 20 17 18 18 16 16 26 21 18 23 21 22 20 17 13 11 9 11 11 13 11 9 7 7 7 8 7 5 5 5 6 7 8 9 10 11
24 20 16 15 13 17 20 16 17 23 23 21 23 22 21 15 13 11 14 14 19 20 20 19 18 17 15 15 11 12 13 12 13 11 8 10 8 7 7 5 5 5 6 6 8 9 9 10 11
27 24 17 28 22 20 24 13 13 14 11 18 23 18 14 13 15 16 16 17 20 21 19 18 19 19 19 20 19 18 16 15 14 12 11 10 8 6 5 5 4 5 7 8 10 9 10 11 11
33 26 29 20 20 16 17 14 14 11 13 14 18 17 11 12 15 15 15 17 20 20 21 21 22 21 21 21 20 19 17 16 16 13 11 10 8 6 5 4 5 6 8 9 11 10 12 12 13
27 27 26 19 21 21 21 22 13 15 16 15 15 14 10 11 17 17 16 20 23 24 23 23 24 24 23 21 19 19 18 17 15 14 13 10 7 6 4 5 6 8 9 10 11 12 12 14 14
16 20 23 23 14 19 15 18 14 23 21 18 16 16 17 15 15 15 17 24 26 26 25 24 24 23 22 20 19 18 17 15 14 12 10 7 6 5 6 8 8 9 10 11 12 14 14 15 16
24 28 31 13 24 15 12 5 4 26 20 20 19 21 21 21 21 20 19 25 25 25 24 24 23 22 21 19 18 17 15 13 11 9 7 6 6 6 7 9 10 11 12 12 13 14 14 14 16
Wind_Direction
254 255 240 249 241 229 249 243 248 179 226 31 22 265 339 353 12 78 130 142 143 149 160 163 168 170 173 175 176 176 172 171 169 168 165 162 160 156 154 150 150 152 152 153 158 161 158 162 161
249 234 232 253 234 243 238 239 242 222 132 98 237 239 228 84 60 102 136 150 150 153 159 163 170 172 175 179 179 179 176 173 170 170 168 166 164 162 158 153 151 153 155 155 159 157 157 161 160
234 228 239 217 234 238 246 236 232 192 102 219 239 255 36 70 80 102 103 150 149 155 160 166 168 173 176 178 181 180 177 174 172 172 170 168 169 168 164 158 154 152 151 151 155 152 154 157 155
212 207 247 246 233 224 248 261 220 192 167 196 236 247 119 49 32 50 143 153 151 158 162 172 169 172 176 179 181 181 179 176 175 174 171 171 174 174 171 167 164 159 156 155 154 151 151 152 154
232 239 230 232 240 247 225 240 170 230 242 213 216 248 118 96 90 131 152 158 160 158 160 166 172 172 174 178 180 182 181 178 177 176 176 176 177 177 173 170 168 162 163 165 164 164 165 173 184
214 233 235 233 238 232 245 243 257 202 224 205 177 256 125 119 125 145 157 162 164 158 156 165 174 175 174 176 181 184 183 181 180 180 182 180 178 178 175 172 168 169 173 178 179 181 188 194 206
231 218 236 245 245 238 227 238 213 256 223 243 199 254 109 139 112 152 162 165 162 158 158 163 167 175 177 178 183 185 186 187 186 187 186 184 181 181 178 177 174 175 180 189 198 202 206 213 225
230 250 243 241 249 249 237 214 231 248 249 250 248 238 252 111 139 156 165 168 164 161 162 166 169 170 170 176 184 186 188 190 192 193 191 187 186 187 184 186 187 187 190 199 208 214 221 229 236
222 239 238 238 240 244 248 204 228 235 250 238 233 230 88 120 144 164 169 171 171 167 163 171 170 170 172 174 181 184 188 191 194 193 191 186 182 192 200 195 211 202 204 209 215 219 225 231 239
224 228 236 239 244 249 238 215 217 206 221 224 221 205 121 146 161 172 182 177 177 175 169 172 175 172 174 173 177 175 180 182 183 186 188 185 193 198 203 208 215 222 220 224 229 235 237 238 239
219 234 232 245 256 260 220 225 230 205 221 213 205 208 178 178 179 186 192 188 182 178 174 174 177 173 180 176 174 178 181 182 186 189 190 196 201 203 209 208 219 224 231 234 242 238 238 244 247
221 229 246 261 238 254 242 247 233 223 234 245 197 211 174 187 193 199 201 194 182 178 180 178 177 175 192 178 177 185 186 189 190 192 193 202 211 205 214 221 221 216 228 230 242 245 234 247 251
223 231 236 234 254 225 234 245 243 234 209 237 212 213 216 215 191 205 202 212 186 183 183 184 177 178 193 193 180 194 195 193 196 191 196 205 212 215 223 236 242 240 237 242 246 254 261 260 255
221 230 237 251 236 236 234 239 236 237 220 227 204 214 224 221 218 187 202 207 193 192 182 185 178 177 188 195 188 196 197 189 203 198 199 206 213 221 229 232 239 245 250 258 259 262 268 265 263
231 233 233 234 228 237 228 240 232 224 214 206 226 229 233 224 212 213 196 207 197 189 185 184 183 180 190 195 197 200 198 219 202 208 198 204 212 219 237 258 251 255 256 262 264 270 274 272 271
231 236 230 216 225 222 221 240 224 225 220 217 224 219 216 224 214 200 206 190 188 192 171 180 186 173 183 191 201 205 213 209 211 212 201 210 217 216 218 245 255 263 266 272 274 278 274 274 274
213 220 224 227 208 215 210 226 245 215 214 222 217 219 212 216 219 211 201 189 182 185 183 187 187 186 187 196 200 202 210 212 208 222 214 202 226 210 225 245 257 273 270 271 276 279 282 286 281
206 216 221 218 206 206 218 226 254 204 215 208 218 212 216 215 210 209 199 187 179 182 179 184 186 189 185 189 198 199 197 208 203 213 224 218 211 221 233 242 256 261 270 276 286 293 287 285 280
226 222 219 211 223 197 222 224 219 206 228 200 209 210 210 211 205 194 189 195 170 159 175 181 182 182 179 180 190 191 195 204 201 205 200 188 204 224 227 244 257 264 276 281 280 278 277 278 279
232 238 214 218 197 186 213 226 209 210 215 199 203 196 199 200 201 191 172 188 177 168 182 182 180 174 176 181 192 199 190 194 198 188 177 195 208 216 237 256 269 284 284 280 285 286 288 286 287
218 227 232 196 178 206 223 221 224 215 194 201 211 199 199 199 198 185 163 185 180 181 179 186 181 175 181 177 173 155 157 160 178 164 175 188 202 226 250 269 278 288 295 294 309 306 307 303 295
211 218 231 184 183 204 221 217 212 205 212 214 203 208 190 193 195 165 175 172 181 181 175 182 179 163 172 157 164 171 173 175 163 165 148 146 115 146 317 340 327 325 303 316 320 323 324 311 299
220 205 221 201 205 201 202 241 196 202 208 203 203 202 192 186 184 175 171 169 170 155 160 164 154 153 159 165 165 172 195 143 146 126 117 109 106 83 65 42 13 351 331 326 325 319 312 308 306
215 207 206 214 213 206 208 212 225 187 202 187 192 197 188 178 182 182 172 158 154 156 150 150 153 152 156 163 157 165 143 161 147 141 148 140 126 89 65 55 38 29 12 353 342 327 320 322 313
211 200 189 194 195 207 188 202 247 176 187 179 186 187 185 154 165 136 139 138 153 147 147 148 141 142 147 136 138 123 130 118 118 147 128 130 114 88 57 51 34 16 2 355 343 333 325 318 318
197 180 195 179 195 197 186 209 204 66 96 195 180 144 137 167 161 172 146 140 141 137 132 136 137 129 121 109 105 108 120 119 114 99 109 99 98 83 61 38 21 4 354 352 342 330 319 314 310
186 201 208 198 201 196 183 147 78 124 105 89 102 117 161 157 111 114 135 143 129 127 130 132 120 115 115 114 112 108 105 103 103 99 94 88 85 86 54 26 3 1 356 351 338 326 323 315 316
190 206 202 226 196 220 188 163 156 162 150 121 116 121 142 143 142 138 122 120 117 110 110 118 119 117 114 109 106 103 100 96 94 91 85 80 73 58 32 7 0 355 347 340 338 331 321 316 320
195 193 216 224 231 203 185 175 158 161 156 141 134 143 150 128 120 117 117 121 125 121 116 114 113 110 106 103 100 96 93 89 86 80 76 69 53 28 8 359 351 341 338 339 335 327 319 322 317
194 202 208 209 227 249 168 81 170 135 136 137 142 156 137 140 142 132 125 119 117 115 113 109 107 104 101 99 96 93 91 87 82 77 62 46 24 11 359 352 346 343 342 339 334 324 323 320 313